RS-30
1 32953U 08025A 14051.92728419 .00000010 00000-0 00000 0 0 6717
2 32953 082.4999 273.5094 0019509 050.3119 309.9683 12.43042890260816
METEOR-M
1 35865U 09049A 14051.76728896 .00000033 00000-0 34182-4 0 2770
2 35865 098.5639 102.6223 0003162 080.2398 279.9092 14.21908539229796
RS-38
1 35869U 09049E 14051.78226412 .00000070 00000-0 50681-4 0 2259
2 35869 098.5598 102.4774 0005643 080.5550 054.9645 14.22180717229822
JUGNU
1 37839U 11058B 14051.74328953 .00000488 00000-0 11921-3 0 5653
2 37839 019.9607 240.6450 0018881 141.0044 325.5181 14.12249883122074
SRMSAT
1 37841U 11058D 14051.02208169 .00000471 00000-0 11523-3 0 5664
2 37841 019.9712 261.9918 0011910 076.8437 082.1079 14.10301654121801
RAX-2
1 37853U 11061D 14051.85723735 .00015759 00000-0 11127-2 0 7300
2 37853 101.7141 026.2370 0224518 032.9596 021.4885 14.86954372125352
AUBIESAT
1 37854U 11061E 14051.87345144 .00017980 00000-0 12349-2 0 7133
2 37854 101.7185 027.7333 0223364 030.7224 025.6483 14.88010075125397
HRBE
1 37855U 11061F 14051.88025520 .00016589 00000-0 11501-2 0 7232
2 37855 101.7187 027.2723 0225048 031.6214 027.0762 14.87479533125379
RS-39
1 38051U 11062C 14051.72183138 .00047361 00000-0 99687-3 0 2807
2 38051 051.6308 082.5257 0009340 078.1797 031.9964 15.44765939116010
E-STAR
1 38079U 12006C 14051.79406353 .00098668 48048-5 15432-2 0 7535
2 38079 069.4617 292.4890 0479534 161.3531 271.1409 14.80061823106068
GOLIAT
1 38085U 12006J 14051.78811322 .00092708 45686-5 14814-2 0 8254
2 38085 069.4657 297.3257 0495841 163.7590 198.0123 14.76229459105920
HORYU-2
1 38340U 12025D 14051.80405679 .00002816 00000-0 45783-3 0 7689
2 38340 098.2487 007.1758 0012286 179.7146 180.4115 14.71859100 94672
RS-40
1 38735U 12041C 14051.37241203 .00000024 00000-0 10000-3 0 4936
2 38735 082.4780 000.3736 0017076 145.8166 214.4017 12.42556498 71078
PROITERES
1 38756U 12047B 14051.83817730 .00000981 00000-0 15484-3 0 5990
2 38756 098.2323 138.2362 0012936 040.1510 320.0652 14.74664332 78031
BEESAT-3
1 39134U 13015E 14051.58712118 .00009049 00000-0 66409-3 0 5080
2 39134 064.8772 147.0897 0018133 328.9706 031.0844 15.03129846 46125
BEESAT-2
1 39136U 13015G 14051.74525051 .00007102 00000-0 53934-3 0 4972
2 39136 064.8798 146.7891 0016287 327.1922 032.8213 15.02785225 46143
LO-75
1 39382U 13064C 14051.42531978 .00047717 00000-0 17147-2 0 1180
2 39382 040.5006 070.3309 0004966 148.0736 212.1325 15.27816180 14097
ZACUBE-1
1 39417U 13066B 14050.83555247 .00002160 00000-0 30092-3 0 2235
2 39417 097.7856 125.4655 0061931 264.0469 095.3671 14.77469265 13362
TRITON-1
1 39427U 13066M 14051.74917828 .00001700 00000-0 29607-3 0 770
2 39427 097.7757 124.5189 0118304 260.8788 097.9017 14.64847595 13342
DELFIN3XT
1 39428U 13066N 14051.76924648 .00002737 00000-0 48859-3 0 817
2 39428 097.7750 124.1809 0129385 261.3237 097.3270 14.62424822 13311
GOMX-1
1 39430U 13066Q 14051.73542651 .00002250 00000-0 43913-3 0 2411
2 39430 097.7702 123.2957 0157257 263.1867 095.1402 14.56299656 13268
$50SAT
1 39436U 13066W 14051.86562401 .00013593 00000-0 15518-2 0 987
2 39436 097.7894 127.5280 0028586 272.1960 087.6035 14.85898930 13572
LO-74
1 39440U 13066AA 14051.14253331 .00001959 00000-0 30008-3 0 741
2 39440 097.7822 125.0412 0083871 261.8435 097.3274 14.72453704 13359
PUCPSAT-1
1 39442U 13066AC 14051.11491350 .00003093 00000-0 36401-3 0 716
2 39442 097.7906 126.8269 0034047 269.8914 089.8467 14.85149946 12245
